CW3794 Weather Reports


Display with metric or nautical units.
time (UTC)temp
F
wind
direction
speed
MPH
gust
MPH
rain 1hr
in
rain 24hr
in
rain mn
in
humidity
%
barometer
mb
20170325132423 52 32 0.0 3.0 0.00 0.00 0.00 59 1015.9
20170325131438 52 27 0.0 4.0 0.00 0.00 0.00 59 1015.8
20170325130959 52 28 0.0 4.0 0.00 0.00 0.00 59 1015.8
20170325130420 52 27 0.0 4.0 0.00 0.00 0.00 59 1015.9
20170325125927 52 26 0.0 3.0 0.00 0.00 0.00 60 1015.9
20170325125445 51 26 0.0 5.0 0.00 0.00 0.00 60 1015.9
20170325124944 51 26 1.0 5.0 0.00 0.00 0.00 60 1015.9
20170325124430 51 32 2.0 4.0 0.00 0.00 0.00 61 1015.8
20170325123955 51 34 1.0 4.0 0.00 0.00 0.00 60 1015.9
20170325122929 51 32 0.0 3.0 0.00 0.00 0.00 60 1015.8
20170325122421 51 31 0.0 3.0 0.00 0.00 0.00 59 1015.8
20170325121500 52 30 0.0 1.0 0.00 0.00 0.00 59 1015.9
20170325121000 52 30 0.0 1.0 0.00 0.00 0.00 60 1015.8
20170325120420 52 30 0.0 1.0 0.00 0.00 0.00 59 1015.7
20170325114947 52 30 0.0 0.0 0.00 0.00 0.00 59 1015.9
20170325114001 52 26 0.0 3.0 0.00 0.00 0.00 59 1016.0
20170325113450 52 24 1.0 3.0 0.00 0.00 0.00 58 1015.9
20170325112446 53 22 0.0 0.0 0.00 0.00 0.00 57 1016.0
20170325111947 53 21 0.0 0.0 0.00 0.00 0.00 56 1016.1
20170325105952 53 22 0.0 0.0 0.00 0.00 0.00 56 1016.3
20170325103456 53 30 0.0 0.0 0.00 0.00 0.00 58 1016.5
20170325101856 53 30 0.0 0.0 0.00 0.00 0.00 58 1016.5
20170325101349 53 30 0.0 0.0 0.00 0.00 0.00 57 1016.6
20170325095900 54 30 0.0 0.0 0.00 0.00 0.00 56 1016.6
20170325094831 54 30 0.0 0.0 0.00 0.00 0.00 56 1016.6
20170325094340 55 30 0.0 0.0 0.00 0.00 0.00 55 1016.8
20170325093324 55 13 0.0 4.0 0.00 0.00 0.00 55 1016.9
20170325092836 56 23 0.0 4.0 0.00 0.00 0.00 54 1017.0
20170325091834 56 23 2.0 4.0 0.00 0.00 0.00 53 1017.1
20170325091323 56 22 0.0 5.0 0.00 0.00 0.00 53 1017.2
20170325090848 56 20 1.0 6.0 0.00 0.00 0.00 53 1017.3
20170325090322 56 10 3.0 6.0 0.00 0.00 0.00 54 1017.4
20170325085839 56 8 2.0 5.0 0.00 0.00 0.00 54 1017.4
20170325084840 56 24 2.0 5.0 0.00 0.00 0.00 54 1017.4
20170325084321 56 22 2.0 4.0 0.00 0.00 0.00 54 1017.4
20170325083851 56 21 1.0 4.0 0.00 0.00 0.00 54 1017.5
20170325082329 56 20 0.0 4.0 0.00 0.00 0.00 55 1017.6
20170325075341 57 19 0.0 0.0 0.00 0.00 0.00 53 1017.8
20170325074902 57 19 0.0 0.0 0.00 0.00 0.00 53 1017.9
20170325074331 58 19 0.0 0.0 0.00 0.00 0.00 52 1017.9
20170325072836 58 17 0.0 3.0 0.00 0.00 0.00 52 1018.0
20170325071842 58 19 0.0 4.0 0.00 0.00 0.00 52 1018.1
20170325071359 58 20 0.0 4.0 0.00 0.00 0.00 52 1018.1
20170325070320 58 21 1.0 4.0 0.00 0.00 0.00 52 1018.2
20170325064849 59 20 0.0 4.0 0.00 0.00 0.00 51 1018.4
20170325064342 59 18 1.0 3.0 0.00 0.00 0.00 51 1018.4
20170325063846 59 17 0.0 2.0 0.00 0.00 0.00 51 1018.5
20170325062844 59 17 0.0 0.0 0.00 0.00 0.00 51 1018.5
20170325062334 59 17 0.0 0.0 0.00 0.00 0.00 51 1018.6
20170325061841 59 16 0.0 0.0 0.00 0.00 0.00 50 1018.6
20170325060846 60 15 0.0 3.0 0.00 0.00 0.00 50 1018.6
20170325060344 60 15 0.0 3.0 0.00 0.00 0.00 50 1018.6
20170325055341 60 16 0.0 5.0 0.00 0.00 0.00 49 1018.6
20170325054838 60 17 0.0 4.0 0.00 0.00 0.00 49 1018.6
20170325054341 60 18 1.0 4.0 0.00 0.00 0.00 49 1018.6
20170325053356 61 17 0.0 4.0 0.00 0.00 0.00 48 1018.8
20170325052328 61 272 0.0 0.0 0.00 0.00 0.00 47 1018.9
20170325051852 61 272 0.0 0.0 0.00 0.00 0.00 47 1018.9
20170325051346 61 271 0.0 0.0 0.00 0.00 0.00 47 1018.9
20170325050855 62 271 0.0 0.0 0.00 0.00 0.00 48 1018.8
20170325050401 62 271 0.0 0.0 0.00 0.00 0.00 48 1018.9
20170325045832 62 271 0.0 0.0 0.00 0.00 0.00 47 1019.0
20170325045347 62 271 0.0 0.0 0.00 0.00 0.00 46 1019.0
20170325044853 62 271 0.0 0.0 0.00 0.00 0.00 46 1019.0
20170325043826 63 271 0.0 0.0 0.00 0.00 0.00 46 1019.1
20170325043335 63 271 0.0 0.0 0.00 0.00 0.00 46 1019.0
20170325042858 63 271 0.0 0.0 0.00 0.00 0.00 46 1018.9
20170325042355 63 271 0.0 0.0 0.00 0.00 0.00 46 1018.9
20170325041327 64 271 0.0 0.0 0.00 0.00 0.00 46 1019.0
20170325040852 64 271 0.0 0.0 0.00 0.00 0.00 45 1019.0
20170325040353 64 271 0.0 0.0 0.00 0.00 0.00 44 1019.1
20170325035830 64 271 0.0 0.0 0.00 0.00 0.00 43 1019.1
20170325035321 65 271 0.0 0.0 0.00 0.00 0.00 43 1019.1
20170325034901 65 271 0.0 0.0 0.00 0.00 0.00 43 1019.1
20170325034350 65 271 0.0 0.0 0.00 0.00 0.00 42 1019.1
20170325032350 65 271 0.0 0.0 0.00 0.00 0.00 40 1018.8
20170325030847 65 271 0.0 0.0 0.00 0.00 0.00 39 1018.8
20170325030339 65 271 0.0 0.0 0.00 0.00 0.00 39 1018.8
20170325025900 64 271 0.0 0.0 0.00 0.00 0.00 39 1018.9
20170325024851 65 271 0.0 0.0 0.00 0.00 0.00 37 1018.9
20170325024357 65 271 0.0 0.0 0.00 0.00 0.00 37 1018.9
20170325023858 66 271 0.0 0.0 0.00 0.00 0.00 37 1018.9
20170325022851 67 271 0.0 0.0 0.00 0.00 0.00 36 1018.9
20170325021838 68 271 0.0 0.0 0.00 0.00 0.00 36 1018.7
20170325020325 70 271 0.0 0.0 0.00 0.00 0.00 33 1018.5
20170325015853 70 271 0.0 0.0 0.00 0.00 0.00 33 1018.5
20170325015351 71 271 0.0 0.0 0.00 0.00 0.00 32 1018.5
20170325014849 71 271 0.0 0.0 0.00 0.00 0.00 32 1018.5
20170325014351 72 271 0.0 0.0 0.00 0.00 0.00 32 1018.5
20170325013827 72 271 0.0 0.0 0.00 0.00 0.00 31 1018.5
20170325012345 74 271 0.0 0.0 0.00 0.00 0.00 31 1018.3
20170325010843 75 271 0.0 0.0 0.00 0.00 0.00 29 1018.3
20170325010355 75 271 0.0 3.0 0.00 0.00 0.00 29 1018.2
20170325005837 75 271 0.0 3.0 0.00 0.00 0.00 28 1018.2
20170325005353 75 271 0.0 0.0 0.00 0.00 0.00 29 1018.3
20170325004349 75 271 0.0 0.0 0.00 0.00 0.00 29 1018.2
20170325003847 75 272 0.0 4.0 0.00 0.00 0.00 28 1018.2
20170325001406 75 272 0.0 3.0 0.00 0.00 0.00 28 1018.3
20170324233825 75 292 0.0 4.0 0.00 0.00 0.00 29 1018.5
20170324233404 75 293 0.0 4.0 0.00 0.00 0.00 28 1018.6
20170324232851 75 205 0.0 0.0 0.00 0.00 0.00 29 1018.7
20170324231843 75 186 0.0 1.0 0.00 0.00 0.00 29 1018.8
20170324230845 75 307 0.0 1.0 0.00 0.00 0.00 29 1018.9
20170324230349 75 323 0.0 4.0 0.00 0.00 0.00 28 1018.9
20170324225333 76 264 1.0 4.0 0.00 0.01 0.00 28 1019.1
20170324224907 76 256 0.0 3.0 0.00 0.02 0.00 29 1019.2
20170324224335 76 256 0.0 1.0 0.00 0.02 0.00 29 1019.2
20170324223849 76 256 0.0 2.0 0.00 0.02 0.00 28 1019.3
20170324223410 76 256 0.0 4.0 0.00 0.02 0.00 29 1019.4
20170324222843 75 261 0.0 6.0 0.00 0.02 0.00 29 1019.5
20170324222409 75 265 1.0 7.0 0.00 0.02 0.00 29 1019.5
20170324221830 75 281 2.0 7.0 0.00 0.02 0.00 29 1019.5
20170324214840 75 273 0.0 4.0 0.00 0.02 0.00 29 1019.9
20170324212330 74 265 0.0 3.0 0.00 0.02 0.00 29 1020.3
20170324211830 74 263 0.0 3.0 0.00 0.02 0.00 27 1020.4
20170324211342 74 260 0.0 6.0 0.00 0.02 0.00 29 1020.5
20170324210900 74 260 0.0 6.0 0.00 0.02 0.00 29 1020.6
20170324205853 73 255 0.0 6.0 0.00 0.02 0.00 29 1020.5
20170324202332 72 249 0.0 2.0 0.00 0.02 0.00 31 1021.2
20170324200835 72 250 0.0 2.0 0.00 0.02 0.00 31 1021.6
20170324194854 71 265 0.0 4.0 0.00 0.02 0.00 32 1021.9
20170324193852 71 262 3.0 7.0 0.00 0.02 0.00 33 1022.0
20170324192831 70 256 0.0 4.0 0.00 0.02 0.00 33 1022.1
20170324192402 70 255 0.0 4.0 0.00 0.02 0.00 34 1022.2
20170324191851 70 308 1.0 6.0 0.00 0.02 0.00 35 1022.2
20170324191342 69 331 1.0 7.0 0.00 0.02 0.00 35 1022.3
20170324190342 69 279 0.0 5.0 0.00 0.02 0.00 36 1022.3
20170324182851 67 204 0.0 3.0 0.00 0.03 0.00 38 1022.7
20170324182354 67 219 0.0 0.0 0.00 0.03 0.00 38 1022.8
20170324181411 67 225 0.0 5.0 0.00 0.03 0.00 38 1022.9
20170324180349 67 145 1.0 4.0 0.00 0.03 0.00 39 1022.9
20170324175911 67 156 1.0 4.0 0.00 0.03 0.00 40 1022.9
20170324174915 66 142 0.0 3.0 0.00 0.03 0.00 40 1023.0
20170324172413 65 145 0.0 0.0 0.00 0.03 0.00 41 1023.1
20170324171901 65 136 0.0 0.0 0.00 0.03 0.00 42 1023.3
20170324171354 65 144 0.0 0.0 0.00 0.03 0.00 43 1023.2
20170324170357 64 245 0.0 2.0 0.00 0.03 0.00 44 1023.2
20170324165355 64 134 0.0 3.0 0.00 0.03 0.00 44 1023.2
20170324164911 64 147 0.0 3.0 0.00 0.03 0.00 44 1023.2
20170324164357 63 180 0.0 1.0 0.00 0.03 0.00 45 1023.1
20170324163840 63 180 0.0 0.0 0.00 0.03 0.00 44 1023.1
20170324161836 61 180 0.0 0.0 0.00 0.03 0.00 46 1022.9
20170324161419 61 180 0.0 2.0 0.00 0.03 0.00 45 1022.9
20170324160359 61 272 1.0 2.0 0.00 0.03 0.00 46 1022.7
20170324155847 60 271 0.0 0.0 0.00 0.03 0.00 47 1022.6
20170324154839 60 271 0.0 2.0 0.00 0.03 0.00 47 1022.7
20170324152408 60 271 0.0 0.0 0.00 0.03 0.00 58 1022.6
20170324151905 59 272 0.0 0.0 0.00 0.03 0.00 59 1022.5
20170324144910 55 272 0.0 0.0 0.00 0.03 0.00 68 1022.4
20170324143402 53 272 0.0 0.0 0.00 0.03 0.00 73 1022.3
20170324142919 52 272 0.0 0.0 0.00 0.03 0.00 74 1022.2
20170324142358 51 272 0.0 0.0 0.00 0.03 0.00 74 1022.1
20170324141908 50 272 0.0 0.0 0.00 0.03 0.00 74 1021.9
20170324141339 49 272 0.0 0.0 0.00 0.03 0.00 75 1021.9
20170324140857 48 272 0.0 0.0 0.00 0.03 0.00 76 1021.9
20170324135340 46 272 0.0 0.0 0.00 0.03 0.00 76 1022.0
20170324134414 46 272 0.0 0.0 0.00 0.03 0.00 75 1021.9
20170324133842 46 272 0.0 0.0 0.00 0.03 0.00 75 1021.9
20170324133356 46 272 0.0 0.0 0.00 0.03 0.00 75 1021.9
20170324132902 46 271 0.0 0.0 0.00 0.03 0.00 75 1021.8